{"data":{"norad_id":53283,"epoch":"2026-09-19T19:32:54.110688Z","epoch_age_seconds":134507,"freshness":"FRESH","line1":"1 53283U 22086AT  26262.81451517 -.00001396  00000+0 -29121-4 0  9998","line2":"2 53283  53.1620  17.2214 0001401 100.6923 259.4238 15.35385588230711","mean_motion":15.35385588,"eccentricity":0.0001401,"inclination_deg":53.162,"raan_deg":17.2214,"arg_perigee_deg":100.6923,"mean_anomaly_deg":259.4238,"bstar":-2.9121e-5,"rev_number":23071,"period_min":93.787515739011,"perigee_km":458.81744055769,"apogee_km":460.73342362116,"semimajor_km":6837.9124320894,"source":"CELESTRAK","updated_at":"2026-09-20T09:00:40.220068Z"}}